Regional Weather Roundup
Issued by NWS Little Rock, AR

Home | Current Version | Previous Version | Graphics & Text | Print | Product List | Glossary On
Versions: 1 2 3 4 5 6 7 8 9 10 11 12 13 14 15 16 17 18 19 20 21 22 23 24 25 26 27 28 29 30 31 32 33 34 35 36 37 38 39 40 41 42 43 44 45 46 47 48 49 50
113
ASUS44 KLZK 191812
RWRLZK

WEATHER ROUNDUP FOR ARKANSAS
NATIONAL WEATHER SERVICE LITTLE ROCK AR
1200 PM CST FRI JAN 19 2018

NOTE: "FAIR" INDICATES FEW OR NO CLOUDS BELOW 12,000 FEET WITH NO
SIGNIFICANT WEATHER AND/OR OBSTRUCTIONS TO VISIBILITY.

ARZ001-003-010-029-191900-
NORTHWEST ARKANSAS

CITY           SKY/WX    TMP DP  RH WIND       PRES   REMARKS
FAYETTEVILLE   SUNNY     48  26  42 S12       30.09F
6HR MIN TEMP:  29; 6HR MAX TEMP:  49;

FORT SMITH     SUNNY     50  30  46 SW12      30.15F
6HR MIN TEMP:  21; 6HR MAX TEMP:  50;

HARRISON       SUNNY     53  24  32 SW13G18   30.08F
6HR MIN TEMP:  26; 6HR MAX TEMP:  53;

BENTONVILLE    SUNNY     48  24  39 S13G20    30.08F
6HR MIN TEMP:  28; 6HR MAX TEMP:  48;

ROGERS         SUNNY     49  25  39 SW16      30.07F
6HR MIN TEMP:  28; 6HR MAX TEMP:  49;

SILOAM SPGS    SUNNY     48  25  40 S17       30.08F
6HR MIN TEMP:  25; 6HR MAX TEMP:  48;

HIGHFILL       SUNNY     47  24  40 S16G22    30.07F
6HR MIN TEMP:  25; 6HR MAX TEMP:  47;

SPRINGDALE     SUNNY     46  23  39 SW13G22   30.10F
$$

ARZ004-005-016-191900-
NORTH CENTRAL ARKANSAS

CITY           SKY/WX    TMP DP  RH WIND       PRES   REMARKS
BATESVILLE     PTSUNNY   45  18  34 S8        30.20F
6HR MIN TEMP:  24; 6HR MAX TEMP:  45;

FLIPPIN        SUNNY     48  21  34 SW10      30.12F
6HR MIN TEMP:  27; 6HR MAX TEMP:  49;

$$

ARZ040-041-191900-
WEST CENTRAL ARKANSAS

CITY           SKY/WX    TMP DP  RH WIND       PRES   REMARKS
MENA           CLOUDY    45  32  61 SW6       30.17F
MOUNT IDA      CLOUDY    48  29  47 VRB6      30.16F
6HR MIN TEMP:  22; 6HR MAX TEMP:  48;

$$

ARZ009-017-025-026-028-191900-
NORTHEAST ARKANSAS

CITY           SKY/WX    TMP DP  RH WIND       PRES   REMARKS
JONESBORO      FAIR      40  24  53 SW15G24   30.23F
6HR MIN TEMP:  26; 6HR MAX TEMP:  40;

NEWPORT        CLOUDY    39  22  50 S14       30.23F
6HR MIN TEMP:  23; 6HR MAX TEMP:  39;

WALNUT RIDGE   FAIR      41  23  48 S16       30.20F
6HR MIN TEMP:  23; 6HR MAX TEMP:  42;

BLYTHEVILLE    FAIR      37  25  61 SW16      30.24F
6HR MIN TEMP:  23; 6HR MAX TEMP:  37;

$$

ARZ022-023-033-042-044-191900-
CENTRAL ARKANSAS

CITY           SKY/WX    TMP DP  RH WIND       PRES   REMARKS
LITTLE ROCK    CLOUDY    42  20  41 SW9       30.24F
6HR MIN TEMP:  25; 6HR MAX TEMP:  42;

N LITTLE ROCK    N/A     40  21  46 S7        30.19F
6HR MIN TEMP:  27; 6HR MAX TEMP:  40;

JACKSONVILLE   CLOUDY    42  19  40 S8        30.22F
6HR MIN TEMP:  23; 6HR MAX TEMP:  42;

SEARCY         CLOUDY    41  22  46 S8        30.23F
6HR MIN TEMP:  17; 6HR MAX TEMP:  41;

HOT SPRINGS    CLOUDY    42  20  41 W6        30.22F
6HR MIN TEMP:  23; 6HR MAX TEMP:  42;

RUSSELLVILLE   CLOUDY    44  19  36 S5        30.18F
6HR MIN TEMP:  21; 6HR MAX TEMP:  44;

CLINTON        CLOUDY    45  19  36 S7G15     30.18F
$$

ARZ036-191900-
EAST ARKANSAS

CITY           SKY/WX    TMP DP  RH WIND       PRES   REMARKS
WEST MEMPHIS   CLOUDY    37  26  64 S13       30.27F
6HR MIN TEMP:  22; 6HR MAX TEMP:  37;

$$

ARZ050-053-066-070-073-191900-
SOUTHWEST ARKANSAS

CITY           SKY/WX    TMP DP  RH WIND       PRES   REMARKS
ARKADELPHIA    CLOUDY    36  26  67 CALM      30.26F
6HR MIN TEMP:  23; 6HR MAX TEMP:  36;

CAMDEN         CLOUDY    45  19  36 S6        30.26F
TEXARKANA      CLOUDY    47  22  37 S10       30.24F
6HR MIN TEMP:  37; 6HR MAX TEMP:  47;

EL DORADO      CLOUDY    45  24  43 S7        30.27F
6HR MIN TEMP:  34; 6HR MAX TEMP:  45;

DE QUEEN       CLOUDY    44  22  41 SW7       30.21F
6HR MIN TEMP:  27; 6HR MAX TEMP:  44;

$$

ARZ056-057-069-191900-
SOUTHEAST ARKANSAS

CITY           SKY/WX    TMP DP  RH WIND       PRES   REMARKS
PINE BLUFF     CLOUDY    39  24  55 S8        30.26F
6HR MIN TEMP:  23; 6HR MAX TEMP:  39;

STUTTGART      CLOUDY    40  25  55 S7        30.27F
6HR MIN TEMP:  25; 6HR MAX TEMP:  40;

MONTICELLO     CLOUDY    44  18  35 S8        30.27F
6HR MIN TEMP:  33; 6HR MAX TEMP:  45;


$$






USA.gov is the U.S. government's official web portal to all federal, state and local government web resources and services.